Погода в Вильянди

Погода в Вильянди : погода сейчас, прогноз погоды и архив. Всё, что Вы хотите узнать о погоде в Вильянди!

Поиск расширенной информации на нашем сайте:

Другие новости

Новости СМИ2

Главная страница сайта

Новости сайта

03.07.2017

Напоминаем, что на нашем специализированном сайте Метеоцентр.Азия вы можете получить высокодетализированные автоматические прогнозы погоды по пунктам России, СНГ и мира в авиационном формате (включающие направление и скорость ветра, видимость, явления погоды, количество и форму облачности, нижнюю и верхнюю границу облачности).


Погода в Вильянди - сегодня

Время (UTC), дата Ветер
(°,м/с) 
Видим.   Явления Облачность Т
(°С)
Тd
(°С)
f(%) Тe
(°С)
Pmin
(гПа)
dP
(гПа)
Po
(мм)
O2
(г/м3)
Тmin Tmax R s Состояние
почвы
18 10.09.18 120 (ЮВ) 1{09}  20000 м    9/4 1200 м 
[]
+16.1 +11.9 76 +21  1021.3  -0.2  758  286  +14.3  +21.6       
03 12.09.18 250 (З) 5-9{14}  20000 м  в посл. час дождь со снегом{ливн. осадки}  6/6 700 м 
[]
+14.8 +12.7 87 +19  1003.8  745  282  +14.5  +19.4     
06 12.09.18 230 (ЮЗ) 5-11{11}  20000 м    4/4 800 м 
[]
+15.4 +12.3 82 +19  1004.6  0.8  746  282  +14.1  +15.8       
09 12.09.18 250 (З) 7-12{15}  20000 м    1/1 1230 м 
[]
+16.5 +9 61 +16  1005.4  0.8  746  282  +14.1  +16.9       
12 12.09.18 240 (ЮЗ) 7-12{17}  20000 м    9/4 1080 м 
[]
+17.1 +9.6 61 +18  1006.6  1.2  747  282  +14.1  +18.1       
15 12.09.18 230 (ЮЗ) 6-13{15}  20000 м    6/0 
[]
+16.3 +8 58 +16  1006.2  -0.4  747  283  +14.1  +18.1       
18 12.09.18 240 (ЮЗ) 4-10{12}  20000 м    9/6 840 м 
[]
+14.7 +10.2 74 +17  1006.3  -0.1  747  284  +14.7  +18.1       
21 12.09.18 240 (ЮЗ) 3-8{14}  20000 м    1/1 1500 м 
[]
+12.9 +8.8 76 +13  1007.5  1.2  748  286  +12.7  +18.1  0.1     
06 13.09.18 250 (З) 5-10{10}  20000 м    ясно 
[]
+14.1 +8.4 69 +14  1011.5  1.5  751  286  +11.6  +14.7       
09 13.09.18 250 (З) 6-12{14}  20000 м    9/9 1000 м 
[]
+16.2 +8.1 59 +16  1013.8  2.3  753  285  +11.6  +17       
12 13.09.18 240 (ЮЗ) 5-11{13}  20000 м    3/3 1110 м 
[]
+17 +8.4 57 +17  1015.3  1.5  754  284  +11.6  +17.9       
15 13.09.18 240 (ЮЗ) 5-11{12}  20000 м    1/1 960 м 
[]
+15.9 +9.1 64 +16  1015.9  0.6  754  286  +11.6  +17.9       
00 14.09.18 200 (Ю) 20000 м    9/0 
[]
+9.9 +8.8 93 +10  1016.1  -0.4  754  292  +9.9  +17.4       
09 17.09.18 200 (Ю) 5-10{12}  10 км  дождь{ливн. осадки}  9/9 210 м 
[]
+12.3 +11.5 95 +14  1011.1  -2.7  751  287  +7.9  +12.5  0.6     
12 17.09.18 250 (З) 5-10{11}  18000 м  слаб. дождь  9/9 210 м 
[]
+14.5 +13.3 92 +20  1009  -2.1  749  284  +8  +14.5     
15 17.09.18 250 (З) 5-9{15}  20000 м  {ливн. осадки}  9/9 400 м 
[]
+14 +12.2 89 +17  1009.3  0.3  749  285  +9  +15.6  0.2     
18 17.09.18 260 (З) 5-9{10}  20000 м    9/9 480 м 
[]
+13.8 +11.6 87 +16  1010.2  0.9  750  285  +10.9  +15.6       
12 19.09.18 260 (З) 5-9{10}  20000 м    ясно 
[]
+22.4 +13.5 57 +29  1010.1  -0.1  750  277  +12.7  +24.2       
15 19.09.18 250 (З) 4-9{13}  20000 м    ясно 
[]
+19.5 +14 71 +27  1011.2  1.1  751  280  +12.7  +24.2       
12 20.09.18 230 (ЮЗ) 4-9{11}  20000 м    4/4 960 м 
[]
+21.8 +14.5 63 +30  1012.8  -0.4  752  278  +14.6  +21.9       
15 20.09.18 230 (ЮЗ) 4-10{12}  20000 м    1/1 1020 м 
[]
+20.6 +13.4 63 +27  1012.9  0.1  752  279  +14.8  +22.2       
12 21.09.18 160 (Ю) 3-8{08}  20000 м    ясно 
[]
+23.6 +14.3 56 +31  1010.5  -2.3  750  275  +15.2  +23.8       
03 22.09.18 210 (ЮЗ) 3{09}  20000 м    9/9 1050 м 
[]
+18.2 +11.6 65 +23  999.7  742  278  +17.8  +23.9       
09 22.09.18 210 (ЮЗ) 4-9{10}  20000 м  {ливн. осадки}  8/8 450 м 
[]
+13.7 +10.5 81 +15  1002.9  0.6  744  284  +11.4  +20.1  0.8     
12 23.09.18 240 (ЮЗ) 5-9{09}  20000 м  ливневой дождь  9/9 500 м 
[]
+12.2 +8.6 79 +11  1000.8  0.1  743  285  +7.9  +12.7  0.2     
Время (UTC), дата Ветер
(°,м/с) 
Видим.   Явления Облачность Т
(°С)
Тd
(°С)
f(%) Тe
(°С)
Pmin
(гПа)
dP
(гПа)
Po
(мм)
O2
(г/м3)
Тmin Tmax R s Состояние
почвы

Для получения пояснительной информации подведите курсор к названию столбца.

ПОГОДА в Вильянди - архив

Всё, что Вы хотите узнать о погоде в Вильянди - удобно и подробно!

Выберите нужную дату (начиная с 1 января 2015* года) и нажмите кнопку "Найти".
Будут отображены архивные сводки погоды по пункту Вильянди, начиная с указанной даты.


Отображать данные в формате CSV (для использования в таблицах Excel)


Внимание! Наш архив погоды предназначен исключительно для личного некоммерческого использования в познавательных целях. Если Вам необходимы официальные справки о состоянии погоды (для производственных, юридических, коммерческих и т.п. целей), обращайтесь в органы Росгидромета.

*Примечание: данная дата относится к архиву по метеостанциям СССР (Россия, СНГ, Балтия).
Архив по метеостанциям Зарубежной Европы и Азии (кроме Китая) хранится 10 дней, по другим регионам земного шара (Китай, Африка, Америка, Австралия, Океания) - 1 день.

Вильянди - район местоположения метеостанции


Название, широта, долгота, высота метеостанции:
Вильянди 58.4°ш. 25.6°д. 87 м над ур. моря [Эстония]

Дополнительная информация

В oтличие oт бoльшинства пoгoдных сайтoв мы публикуем пoдрoбную метеoинфoрмацию в детальнoм прoфессиoнальнoм фoрмате.

Характеристики температуры и влажнoсти вoздуха измеряются на высoте 2 м в тени вдали oт зданий и деревьев.
Скoрoсть ветра измеряется на высoте 10 м (на урoвне рoста челoвека скoрoсть ветра ниже в 1.5-2 раза). Если метеoстанция нахoдится в гoрoде или в лесу, тo скoрoсть ветра занижена на 2-4 м/с пo сравнению с oткрытым местoм. Скoрoсть ветра над акватoриями крупных рек и oзёр, а также на вершинах хoлмoв на 2-5 м/с выше, чем в oбычных услoвиях.
Атмoсфернoе давление в разных тoчках местнoсти мoжет значительнo oтличаться oт давления на метеoстанции, в зависимoсти oт услoвий рельефа (при пoдъёме на 10 м давление пoнижается примернo на 1 мм рт.ст.).